This demonstration page uses our WeatherBlox Daily Observations layout. Learn more.

Hourly Observations for February 14, 2017

Temp ( °F °C ) Dew Point ( °F °C ) Humidity (%) Winds ( mph kmh ) Pressure ( in mb ) Visibility ( mi km ) Precip ( " mm )
12:54 am 00:54 Clear 27 -2.8 23 -5 85 85 Calm 30.11 1020 10 16.0934 0 0
1:54 am 01:54 Clear 28 -2.2 24 -4.4 85 85 NNW 3 6 30.12 1020 10 16.0934 0 0
2:54 am 02:54 Clear 27 -2.8 23 -5 85 85 Calm 30.13 1020 10 16.0934 0 0
3:54 am 03:54 Clear 25 -3.9 22 -5.6 88 88 Calm 30.12 1020 10 16.0934 0 0
4:54 am 04:54 Clear 25 -3.9 20 -6.7 81 81 Calm 30.13 1020 10 16.0934 0 0
5:54 am 05:54 Clear 30 -1.1 25 -3.9 82 82 W 6 9 30.13 1020 10 16.0934 0 0
6:54 am 06:54 Clear 30 -1.1 25 -3.9 82 82 W 6 9 30.16 1021 10 16.0934 0 0
7:54 am 07:54 Sunny 28 -2.2 25 -3.9 88 88 WSW 3 6 30.17 1022 10 16.0934 0 0
8:54 am 08:54 Sunny 35 1.7 28 -2.2 76 76 NW 7 11 30.17 1022 10 16.0934 0 0
9:54 am 09:54 Sunny 41 5 29 -1.7 62 62 N 12 19 30.15 1021 10 16.0934 0 0
10:54 am 10:54 Sunny 46 7.8 28 -2.2 50 50 NNW 14 22 30.14 1021 10 16.0934 0 0
11:54 am 11:54 Sunny 48 8.9 27 -2.8 44 44 NNW 16 26 30.12 1020 10 16.0934 0 0
12:54 pm 12:54 Sunny 53 11.7 24 -4.4 32 32 NW 17 28 30.1 1019 10 16.0934 0 0
1:54 pm 13:54 Sunny 53 11.7 26 -3.3 35 35 NNW 17 28 30.07 1018 10 16.0934 0 0
2:54 pm 14:54 Sunny 52 11.1 28 -2.2 40 40 NNW 14 22 30.07 1018 10 16.0934 0 0
3:54 pm 15:54 Sunny 52 11.1 29 -1.7 41 41 NNW 18 30 30.07 1018 10 16.0934 0 0
4:54 pm 16:54 Sunny 50 10 27 -2.8 41 41 N 16 26 30.08 1019 10 16.0934 0 0
5:54 pm 17:54 Sunny 46 7.8 26 -3.3 46 46 N 13 20 30.09 1019 10 16.0934 0 0
6:54 pm 18:54 Clear 43 6.1 26 -3.3 51 51 NNW 17 28 30.11 1020 10 16.0934 0 0
7:54 pm 19:54 Clear 40 4.4 26 -3.3 58 58 NNW 13 20 30.11 1020 10 16.0934 0 0
8:54 pm 20:54 Clear 36 2.2 26 -3.3 67 67 N 10 17 30.12 1020 10 16.0934 0 0
9:54 pm 21:54 Clear 38 3.3 27 -2.8 65 65 NNW 14 22 30.12 1020 10 16.0934 0 0
10:54 pm 22:54 Clear 37 2.8 27 -2.8 67 67 NW 10 17 30.12 1020 10 16.0934 0 0
11:54 pm 23:54 Clear 36 2.2 26 -3.3 67 67 NNW 14 22 30.12 1020 10 16.0934 0 0

Powered by AerisWeather